Showing default

TIANQI-6, 46810

Orbit data source: Space-Track

TIANQI-6, 46810 is a payload satellite owned by Guodian Gaokeji (CN) in LEO that was launched on Mon, 26 Oct 2020 UTC via a CHANG ZHENG 2C launch vehicle from the Xichang Space Center, China (XSC). Payloads include a variety of satellites, spacecraft, and rockets equipped with specific instruments for various scientific and technological missions. These include communications satellites like Starlink; space stations such as the ISS; scientific satellites like the Hubble; Earth observation satellites from companies like Planet Labs, Umbra, and HawkEye 360; GPS; miniature CubeSats for education and research; and military/defense satellites.

Loading next visibility...
TIANQI-6 details
Identifier
46810, 2020-076D
Orbit
LEO
Last TLE update8 hours ago
Origin
Flag of CNGuodian Gaokeji (CN / PRC)
ManufacturerShanghai ASES
MissionOperational Commercial Communications
Bus & MotorSTARLIGHTB, Unknown motor
Mass40 kg wet, ~40 kg dry
Launch date (UTC)
2020-10-26 (4 years ago)
Launch vehicle
CHANG ZHENG 2C
Launch site
Xichang Space Center, China (XSC)
Object type
Payload
Rocket body
Debris
Shape & HBRBox, Unknown HBR
Radar Cross Section0.195 m², Medium (>0.1 m² and < 1m²)

Expand to show TLE details & history

TLE from 8 hours ago
0 TIANQI-6
1 46810U 20076D   24339.78602738  .00008367  00000-0  64924-3 0  9998
2 46810  34.9995 226.3914 0014149 297.3548  62.5720 15.00611935224409
Epoch: 2024-12-04T18:51Z
Definitive object data (Epoch: 2024-12-04T18:51:52.765Z)
Latitude0.00001°
Longitude-130.65463°
Altitude559.413 km
Speed7.586 km/s
True Right ascension15h 05m 33s
True Declination0° 00' 00"
Sunlit
Object was in daylight at TLE epoch
Visualization TLE readout
Latitude26.08955°
Longitude-88.66352°
Altitude567.4 km
Speed7.58 km/s
Apparent Right ascension15h 47m 49s
Apparent Declination-6° 33' 31"
Sunlit
Object is in daylight
Visualization observer readout
Local Sidereal Time01:01:19
Azimuth300.509° NW
Elevation-40.004°
Doppler factor1
Orbital elements
Apogee altitude578.055 km
Perigee altitude558.398 km
Semi-major axis6,946.364 km
Eccentricity0.0014149
Inclination34.9995°
RAAN226.3914°
Arg. of periapsis297.3548°
True anomaly62.71603°
Mean anomaly62.572°
Eccentric anomaly62.644°
Mean motion3.74893 °/min
BSTAR0.00064924
Orbital period96.03 mins
Loading maneuver chart data...
Loading historical data...
Loading historical data...
Loading historical data...
Loading historical data...
Loading historical data...
Loading historical data...
Loading historical data...
Other satellites on launch #76 in the year 2020 (2020-10-26 UTC)

TIANQI-6 Visibility forecast

Observer location: undefined°, undefined

Span
Click to sort rows by Start time (UTC) header in descending order
Start Az.
Max El. time (UTC)
Max El. Az.
Max El.
End time (UTC)
End Az.
6 mins2024-12-05 20:40:08.403Z212.821° SW2024-12-05 20:43:08.403Z155.183° SSE24.328°2024-12-05 20:46:08.403Z107.132° ESE
6 mins2024-12-05 22:21:08.403Z240.691° WSW2024-12-05 22:24:08.403Z165.104° S33.686°2024-12-05 22:27:08.403Z110.666° ESE
6 mins2024-12-06 00:02:08.403Z248.433° W2024-12-06 00:05:08.403Z185.072° SSW28.11°2024-12-06 00:08:08.403Z133.522° SE
|